Weather History for Rome, OR

Change the Weather History Date:

Friday, March 8, 2013

  Actual Average Record
Temperature  
Mean Temperature 34 °F 38 °F  
Max Temperature 50 °F 52 °F 68 °F (2005)
Min Temperature 18 °F 25 °F 8 °F (2009)
Degree Days  
Heating Degree Days 31 27  
Month to date heating degree days 223 220  
Since 1 July heating degree days 4872 4954  
Cooling Degree Days 0 0  
Month to date cooling degree days 0 0  
Year to date cooling degree days 0 0  
Moisture  
Dew Point 16 °F    
Average Humidity 56    
Maximum Humidity 84    
Minimum Humidity 28    
Precipitation  
Precipitation 0.00 in 0.02 in 1.04 in (1943)
Month to date precipitation 0.03 0.19  
Year to date precipitation 0.81 1.60  
Sea Level Pressure  
Sea Level Pressure 29.95 in    
Wind  
Wind Speed 5 mph (NNE)    
Max Wind Speed 18 mph    
Max Gust Speed 21 mph    
T = Trace of Precipitation, MM = Missing Value Source: NWS Daily Summary

Daily Weather History Graph

Daily Weather History Graph

Search for Another Location

Airport:

Trip Planner

Search our weather history database for the weather conditions in past years. The results will help you decide how hot, cold, wet, or windy it might be!

Date:

Astronomy

Mar. 08, 2013 Rise Set
Actual Time 6:14 AM PST 5:50 PM PST
Civil Twilight 5:46 AM PST 6:18 PM PST
Nautical Twilight 5:14 AM PST 6:50 PM PST
Astronomical Twilight 4:41 AM PST 7:23 PM PST
Moon 4:05 AM PST (3/8) 2:47 PM PST (3/8)
Length of Visible Light 12h 31m
Length of Day
11h 35m
Waning Crescent, 11% of the Moon is Illuminated
Mar 8
Waning Crescent
Mar 11
New
Mar 19
First Quarter
Mar 27
Full
Apr 2
Last Quarter

Hourly Weather History & Observations

Time (PST) Temp. Windchill Dew Point Humidity Pressure Visibility Wind Dir Wind Speed Gust Speed Precip Events Conditions
12:52 AM 25.0 °F 18.1 °F 17.1 °F 72% 29.95 in - NE 5.8 mph - N/A   Unknown
1:52 AM 21.9 °F - 16.0 °F 78% 29.95 in - Calm Calm - N/A   Unknown
2:52 AM 21.9 °F 14.5 °F 16.0 °F 78% 29.93 in - ENE 5.8 mph - N/A   Unknown
3:52 AM 24.1 °F 17.0 °F 18.0 °F 77% 29.92 in - NE 5.8 mph - N/A   Unknown
4:52 AM 18.0 °F - 14.0 °F 84% 29.94 in - Calm Calm - N/A   Unknown
5:52 AM 19.0 °F - 15.1 °F 85% 29.96 in - Calm Calm - N/A   Unknown
6:52 AM 21.9 °F - 17.1 °F 82% 29.96 in - Calm Calm - N/A   Unknown
7:52 AM 30.9 °F - 21.9 °F 69% 29.95 in - Calm Calm - N/A   Unknown
8:52 AM 36.0 °F - 19.9 °F 52% 29.94 in - Calm Calm - N/A   Unknown
9:52 AM 39.9 °F 36.7 °F 19.0 °F 43% 29.94 in - Variable 4.6 mph - N/A   Unknown
10:52 AM 43.0 °F 37.7 °F 19.9 °F 40% 29.92 in - NE 9.2 mph - N/A   Unknown
11:52 AM 46.0 °F 40.2 °F 19.0 °F 34% 29.90 in - North 12.7 mph 16.1 mph N/A   Unknown
12:52 PM 46.9 °F - 18.0 °F 32% 29.88 in - North 4.6 mph 16.1 mph N/A   Unknown
1:52 PM 46.9 °F - 19.0 °F 33% 29.87 in - North 6.9 mph 16.1 mph N/A   Unknown
2:52 PM 48.9 °F - 17.1 °F 28% 29.87 in - NNW 12.7 mph - N/A   Unknown
3:52 PM 46.9 °F - 15.1 °F 28% 29.88 in - NNW 9.2 mph - N/A   Unknown
4:52 PM 45.0 °F 40.1 °F 15.1 °F 30% 29.91 in - North 9.2 mph - N/A   Unknown
5:52 PM 39.0 °F 34.0 °F 15.1 °F 38% 29.95 in - North 6.9 mph - N/A   Unknown
6:52 PM 35.1 °F 32.2 °F 14.0 °F 42% 29.98 in - North 3.5 mph - N/A   Unknown
7:52 PM 30.9 °F - 12.0 °F 46% 29.99 in - Calm Calm - N/A   Unknown
8:52 PM 30.0 °F - 12.0 °F 47% 30.00 in - Calm Calm - N/A   Unknown
9:52 PM 19.9 °F 14.9 °F 8.1 °F 60% 30.04 in - ESE 3.5 mph - N/A   Unknown
10:52 PM 23.0 °F - 9.0 °F 55% 30.04 in - Calm Calm - N/A   Unknown
11:52 PM 24.1 °F 13.7 °F 12.0 °F 60% 30.05 in - SSE 10.4 mph - N/A   Unknown